Date,TemperatureHighF,TemperatureAvgF,TemperatureLowF,DewpointHighF,DewpointAvgF,DewpointLowF,HumidityHigh,HumidityAvg,HumidityLow,PressureMaxIn,PressureMinIn,WindSpeedMaxMPH,WindSpeedAvgMPH,GustSpeedMaxMPH,PrecipitationSumIn
2013-3-1,52,42,30,42,37,29,94,83,61,30.50,30.41,7,1,0,0.00
2013-3-2,55,41,30,47,39,28,98,91,73,30.40,30.22,13,3,0,0.01
2013-3-3,46,43,38,43,40,35,97,90,79,30.22,30.05,6,1,0,0.00
2013-3-4,46,39,31,39,36,29,94,87,71,30.05,29.70,6,1,0,0.00
2013-3-5,51,38,29,40,33,28,97,85,59,29.70,29.59,6,2,0,0.00
2013-3-6,43,40,36,39,37,34,95,88,83,29.64,29.57,18,7,0,0.04
2013-3-7,46,42,40,45,41,39,97,94,89,29.57,29.44,18,7,0,0.36
2013-3-8,42,41,39,40,38,38,94,90,87,29.63,29.46,14,8,0,0.07
2013-3-9,41,39,37,38,36,30,92,87,75,29.84,29.63,27,10,0,0.02
2013-3-10,40,34,28,35,29,24,92,81,71,30.07,29.84,18,6,0,0.02
2013-3-11,38,31,25,25,22,19,92,71,53,30.12,30.07,18,6,0,0.02
2013-3-12,46,33,23,37,27,18,87,78,58,30.12,29.88,12,3,0,0.00
2013-3-13,48,39,34,33,30,24,86,70,44,29.89,29.85,12,6,0,0.00
2013-3-15,44,37,33,40,35,32,96,90,83,29.34,29.33,4,1,0,0.24
2013-3-16,42,37,33,38,36,32,97,94,86,29.33,29.18,13,2,0,0.13
2013-3-17,43,38,34,41,37,33,97,95,90,29.21,29.08,8,3,0,0.11
2013-3-18,43,38,34,39,35,31,97,89,81,29.49,29.21,21,7,0,0.04
2013-3-19,40,36,34,35,33,30,94,87,80,29.58,29.47,29,10,0,0.03
2013-3-20,41,37,31,35,33,29,94,86,73,29.98,29.59,12,4,0,0.00
2013-3-21,42,34,28,32,28,26,93,79,62,30.02,29.89,17,6,0,0.00
2013-3-22,37,35,33,33,31,29,95,87,73,29.91,29.82,19,8,0,0.09
2013-3-23,36,34,33,32,30,26,95,83,74,30.10,29.92,17,8,0,0.07
2013-3-24,39,36,33,28,26,25,76,70,60,30.23,30.10,20,10,0,0.00
2013-3-25,40,35,32,28,27,25,80,71,62,30.24,30.19,18,7,0,0.00
2013-3-26,40,35,30,31,28,25,91,75,58,30.20,30.10,12,5,0,0.00
2013-3-27,42,35,28,34,29,25,93,81,56,30.12,30.03,14,5,0,0.01
2013-3-28,42,36,29,33,28,25,100,76,54,30.06,30.00,12,4,0,0.01
2013-3-29,44,35,28,33,28,24,94,78,56,30.00,29.87,12,3,0,0.00
2013-3-30,43,36,25,32,28,23,95,74,53,29.96,29.91,10,2,0,0.00
2013-3-31,43,37,29,30,26,23,88,67,46,29.97,29.91,15,4,0,0.00